Location: ?????
(42.2640°N, 43.4211°E)
Time: 13:19:50
(UTC+00:00)

COSMOS 2441 - Pass Details

Date: 07 August 2020
Orbit: 708 x 731 km, 98.1° (Epoch: 19 September)

Event Time Altitude Azimuth Distance (km) Brightness Sun altitude
Rises 00:47:49 0° 12° (NNE) 3,115 8.5 -13.2°
Reaches altitude 10° 00:50:05 10° 12° (NNE) 2,193 7.6 -12.9°
Maximum altitude 00:54:54 85° 286° (WNW) 720 4.3 -12.2°
Drops below altitude 10° 00:59:42 10° 196° (SSW) 2,186 6.4 -11.5°
Enters shadow 01:00:04 - 196° (SSW) 2,332 6.5 -11.4°
